EW1931 Weather Reports


time (UTC)temp
F
wind
direction
speed
knots
gust
knots
rain 1hr
in
rain 24hr
in
rain mn
in
humidity
%
barometer
mb
20260904004535 76 289 7.0 11.3 0.00 0.00 0.00 30 1006.2
20260904003025 76 283 8.7 13.0 0.00 0.00 0.00 29 1006.3
20260904001518 76 271 10.4 15.6 0.00 0.00 0.00 26 1006.1
20260904000059 77 246 13.9 19.1 0.00 0.00 0.00 25 1006.0
20260903234556 77 254 13.9 18.2 0.00 0.00 0.00 26 1005.9
20260903233041 77 275 13.0 20.9 0.00 0.04 0.00 26 1005.8
20260903231536 77 259 15.6 22.6 0.00 0.04 0.00 26 1005.7
20260903230022 78 223 18.2 22.6 0.00 0.04 0.00 25 1005.7
20260903224516 78 223 19.1 26.1 0.00 0.04 0.00 25 1005.5
20260903223059 78 246 19.1 26.1 0.00 0.04 0.00 25 1005.5
20260903221557 78 216 12.2 25.2 0.00 0.04 0.00 26 1005.4
20260903220049 78 229 16.5 23.5 0.00 0.04 0.00 27 1005.1
20260903214538 78 244 17.4 26.9 0.00 0.04 0.00 26 1005.0
20260903213020 77 237 19.1 27.8 0.00 0.04 0.00 27 1005.0
20260903211519 77 221 16.5 26.1 0.00 0.04 0.00 27 1004.9
20260903210001 77 239 18.2 24.3 0.00 0.04 0.00 27 1004.9
20260903204619 77 217 11.3 18.2 0.00 0.04 0.00 28 1004.9
20260903203040 75 238 13.0 21.7 0.00 0.04 0.00 29 1004.9
20260903201540 76 233 12.2 25.2 0.00 0.04 0.00 28 1004.9
20260903200022 75 250 14.8 20.0 0.00 0.04 0.00 30 1004.9
20260903194521 76 244 16.5 22.6 0.00 0.04 0.00 29 1004.8
20260903193101 75 245 15.6 26.1 0.00 0.04 0.00 30 1004.8
20260903191601 75 207 15.6 26.1 0.00 0.04 0.00 30 1004.9
20260903190041 75 212 13.0 25.2 0.00 0.04 0.00 31 1004.8
20260903184544 74 212 14.8 26.1 0.00 0.04 0.00 31 1004.8
20260903183023 74 237 18.2 24.3 0.00 0.04 0.00 31 1004.6
20260903181521 73 231 15.6 26.9 0.00 0.04 0.00 32 1004.8
20260903180003 73 232 13.0 19.1 0.00 0.04 0.00 35 1004.8
20260903174558 70 230 10.4 15.6 0.00 0.04 0.00 41 1005.0
20260903173035 67 232 7.0 9.6 0.00 0.04 0.00 46 1005.2
20260903171531 66 186 0.9 6.1 0.00 0.04 0.00 50 1005.3
20260903170009 63 171 2.6 5.2 0.00 0.04 0.00 54 1005.4
20260903164505 60 176 1.7 4.3 0.00 0.04 0.00 59 1005.4
20260903163047 59 202 1.7 3.5 0.00 0.04 0.04 61 1005.2
20260903161544 57 291 0.9 4.3 0.00 0.04 0.04 65 1005.3
20260903160051 56 182 1.7 3.5 0.00 0.04 0.04 67 1005.4
20260903154525 55 182 3.5 7.0 0.00 0.04 0.04 68 1005.4
20260903153008 54 184 7.8 9.6 0.00 0.04 0.04 71 1005.6
20260903151506 54 203 4.3 6.1 0.00 0.04 0.04 72 1005.4
20260903144555 51 195 3.5 5.2 0.00 0.04 0.04 74 1005.2
20260903143030 50 202 4.3 7.0 0.00 0.04 0.04 76 1005.2
20260903141529 49 209 5.2 7.0 0.00 0.04 0.04 77 1005.1
20260903140011 49 209 5.2 7.0 0.00 0.04 0.04 75 1004.9
20260903134510 49 191 6.1 8.7 0.00 0.04 0.04 77 1004.7
20260903133058 48 184 7.0 8.7 0.00 0.04 0.04 77 1004.5
20260903131550 47 192 6.1 7.8 0.00 0.04 0.04 77 1004.3
20260903130031 47 188 7.0 8.7 0.00 0.04 0.04 77 1004.4
20260903124529 47 202 7.0 8.7 0.00 0.04 0.04 76 1004.2
20260903123016 47 183 7.8 9.6 0.00 0.04 0.04 76 1004.2
20260903121511 47 182 8.7 10.4 0.00 0.04 0.04 76 1004.0
20260903120110 48 182 8.7 11.3 0.00 0.04 0.04 76 1004.0
20260903114552 48 205 7.0 8.7 0.00 0.04 0.04 75 1004.1
20260903113051 47 185 5.2 10.4 0.00 0.04 0.04 77 1004.1
20260903111533 46 156 7.0 8.7 0.00 0.04 0.04 78 1004.1
20260903110030 46 169 5.2 7.8 0.00 0.04 0.04 78 1004.0
20260903104508 47 226 4.3 6.1 0.00 0.04 0.04 75 1003.9
20260903103012 49 157 6.1 9.6 0.00 0.04 0.04 72 1004.2
20260903101553 49 230 4.3 5.2 0.00 0.04 0.04 73 1003.9
20260903100050 48 230 3.5 4.3 0.00 0.04 0.04 73 1003.9
20260903094536 48 230 1.7 2.6 0.00 0.04 0.04 74 1003.8
20260903093040 48 230 1.7 3.5 0.00 0.04 0.04 73 1003.9
20260903091512 50 230 2.6 3.5 0.00 0.04 0.04 71 1003.8
20260903090025 50 230 2.6 3.5 0.00 0.04 0.04 71 1003.9
20260903084554 49 230 3.5 4.3 0.00 0.04 0.04 75 1003.8
20260903083056 48 278 2.6 6.1 0.00 0.04 0.04 76 1003.6
20260903081539 48 281 4.3 6.1 0.00 0.04 0.04 77 1003.5
20260903080034 47 265 3.5 5.2 0.00 0.04 0.04 78 1003.6
20260903074513 48 267 3.5 5.2 0.00 0.04 0.04 76 1003.5
20260903073023 49 213 5.2 6.1 0.00 0.04 0.04 74 1003.5
20260903071559 50 202 6.1 7.0 0.00 0.04 0.04 73 1003.5
20260903070050 50 180 7.8 8.7 0.00 0.04 0.04 74 1003.7
20260903064540 50 177 8.7 12.2 0.00 0.04 0.04 74 1003.5
20260903063032 50 184 8.7 11.3 0.00 0.04 0.04 74 1003.4
20260903061516 51 176 9.6 10.4 0.00 0.04 0.04 72 1003.2
20260903060013 50 196 7.0 8.7 0.00 0.04 0.04 75 1003.6
20260903054601 50 204 6.1 7.0 0.00 0.04 0.04 76 1003.9
20260903053056 51 207 6.1 8.7 0.00 0.04 0.04 75 1004.2
20260903051554 50 216 5.2 7.0 0.00 0.04 0.04 76 1004.1
20260903050050 52 179 5.2 6.1 0.00 0.04 0.04 73 1003.9
20260903044554 53 13 5.2 7.0 0.00 0.04 0.04 72 1004.0
20260903043049 52 13 4.3 7.0 0.00 0.04 0.04 75 1004.0
20260903041547 53 13 5.2 7.8 0.00 0.04 0.04 74 1003.8
20260903040044 54 13 5.2 7.8 0.00 0.04 0.04 74 1004.0
20260903034530 54 13 7.0 8.7 0.00 0.04 0.04 74 1004.0
20260903033036 55 13 9.6 11.3 0.00 0.04 0.04 73 1003.9
20260903031634 56 14 8.7 13.0 0.00 0.04 0.04 72 1003.8
20260903030101 57 14 12.2 17.4 0.00 0.04 0.04 70 1003.6
20260903024540 57 136 14.8 20.0 0.00 0.04 0.04 69 1002.8
20260903023038 59 244 12.2 18.2 0.00 0.04 0.04 66 1002.6
20260903021518 61 233 19.1 26.1 0.00 0.04 0.04 61 1002.5
20260903020017 59 218 13.0 19.1 0.00 0.04 0.04 63 1002.3
20260903014601 61 204 13.9 18.2 0.00 0.04 0.04 61 1002.8
20260903013100 63 194 12.2 17.4 0.00 0.04 0.04 57 1002.7
20260903011542 64 174 6.1 13.9 0.00 0.04 0.04 60 1003.2
20260903010045 64 181 4.3 7.0 0.00 0.04 0.04 59 1003.3